User: anonymous   Login
Location: Most
(50.5133°N, 13.6207°E)
Time: 07:06:59
(UTC+01:00)
Language:

PicSat - Orbit

View from above orbital plane
View from above orbital plane
View from above satellite
View from above satellite

Ground track
Ground track

The orbit data is extracted from the following two-line orbital elements,

1 43131U 18004W   21338.76796199  .00006954  00000-0  24846-3 0  9997
2 43131  97.3982  53.6436 0006985 329.5260  30.5573 15.29130059216775
Epoch (UTC): 04 December 2021 18:25:51
Eccentricity: 0.0006985
inclination: 97.3982°
perigee height: 473 km
apogee height: 483 km
right ascension of ascending node: 53.6436°
argument of perigee: 329.5260°
revolutions per day: 15.29130059
mean anomaly at epoch: 30.5573°
orbit number at epoch: 21677

The dashed part of the orbit path shows where the satellite is in the earth's shadow,  

DLR